Location: Gleizolles
(44.4833°N, 6.7667°E)
Time: 02:44:10
(UTC+00:00)

Vanguard 1 Rocket - Pass Details

Date: 27 June 2024
Orbit: 650 x 4219 km, 34.3° (Epoch: 15 July)

Event Time Altitude Azimuth Distance (km) Brightness Sun altitude
Rises 06:59:16 0° 282° (WNW) 7,508 11.6 30.6°
Reaches altitude 10° 07:05:02 10° 272° (W) 6,870 11.4 31.7°
Maximum altitude 07:23:35 29° 223° (SW) 5,903 11.4 35.0°
Drops below altitude 10° 07:42:25 10° 173° (S) 6,853 12.1 38.3°
Sets 07:48:21 0° 163° (SSE) 7,472 12.3 39.4°
